N282SF EGCC-EDDH

Flight info

Callsign N282SF
Flight time N/A
Altitude 31000
Route SONEX L975 DESIG L603 LAMSO DCT VALAM DCT PABCO M105 RIBSO RIBSO7A
Aircraft SF50/L-BDGRSWY/LB2U2

Departure

Time 2026-05-07 11:14
Airport Manchester Airport (EGCC)

Arrival

Time N/A
Airport Hamburg Helmut Schmidt Airport (EDDH)
Time Latitude Longitude Altitude Speed Heading
2026-05-07 10:59 53.35441 -2.28063 237 ft 0 kts 339°
2026-05-07 11:09 53.35444 -2.28078 237 ft 4 kts 281°
2026-05-07 11:09 53.35434 -2.28148 237 ft 9 kts 214°
2026-05-07 11:09 53.35361 -2.28170 233 ft 13 kts 187°
2026-05-07 11:10 53.35263 -2.28185 230 ft 14 kts 184°
2026-05-07 11:10 53.35172 -2.28199 228 ft 13 kts 186°
2026-05-07 11:10 53.35076 -2.28125 224 ft 18 kts 140°
2026-05-07 11:10 53.34980 -2.27990 229 ft 18 kts 140°
2026-05-07 11:11 53.34899 -2.27880 229 ft 11 kts 141°
2026-05-07 11:11 53.34864 -2.27835 229 ft 0 kts 152°
2026-05-07 11:13 53.34828 -2.27811 228 ft 11 kts 166°
2026-05-07 11:13 53.34758 -2.27835 224 ft 1 kts 230°
2026-05-07 11:14 53.34628 -2.28103 223 ft 62 kts 231°
2026-05-07 11:14 53.34259 -2.28867 336 ft 100 kts 228°
2026-05-07 11:14 53.33805 -2.29801 760 ft 107 kts 229°
2026-05-07 11:14 53.33331 -2.30828 1212 ft 120 kts 229°
2026-05-07 11:15 53.32753 -2.32000 1522 ft 141 kts 230°
2026-05-07 11:15 53.32075 -2.33395 1889 ft 167 kts 233°
2026-05-07 11:15 53.31663 -2.35247 2584 ft 172 kts 263°
2026-05-07 11:15 53.31763 -2.37231 3282 ft 173 kts 288°
2026-05-07 11:16 53.32355 -2.38937 3952 ft 172 kts 314°
2026-05-07 11:16 53.33309 -2.40057 4632 ft 167 kts 339°
2026-05-07 11:16 53.34035 -2.40457 5058 ft 166 kts 345°
2026-05-07 11:16 53.35192 -2.41103 5718 ft 166 kts 342°
2026-05-07 11:17 53.36289 -2.41721 6321 ft 166 kts 342°
2026-05-07 11:17 53.37393 -2.42322 6857 ft 167 kts 342°
2026-05-07 11:17 53.38506 -2.42928 7352 ft 169 kts 342°
2026-05-07 11:17 53.39635 -2.43545 7842 ft 172 kts 342°
2026-05-07 11:18 53.40779 -2.44166 8335 ft 174 kts 341°
2026-05-07 11:18 53.41944 -2.44792 8794 ft 178 kts 341°
2026-05-07 11:18 53.43123 -2.45395 9228 ft 181 kts 346°
2026-05-07 11:18 53.44380 -2.45382 9649 ft 186 kts
2026-05-07 11:19 53.45591 -2.44573 10076 ft 191 kts 31°
2026-05-07 11:19 53.46555 -2.43014 10478 ft 195 kts 53°
2026-05-07 11:19 53.47098 -2.40921 10867 ft 199 kts 77°
2026-05-07 11:19 53.47352 -2.38633 11265 ft 200 kts 78°
2026-05-07 11:20 53.47633 -2.36328 11672 ft 202 kts 77°
2026-05-07 11:20 53.47913 -2.33997 12072 ft 204 kts 78°
2026-05-07 11:20 53.48046 -2.32870 12270 ft 205 kts 78°
2026-05-07 11:20 53.48319 -2.30505 12672 ft 207 kts 78°
2026-05-07 11:21 53.48596 -2.28113 13087 ft 209 kts 78°
2026-05-07 11:21 53.48873 -2.25709 13510 ft 210 kts 78°
2026-05-07 11:21 53.49152 -2.23319 13926 ft 212 kts 78°
2026-05-07 11:21 53.49387 -2.21236 14244 ft 213 kts 78°
2026-05-07 11:22 53.49641 -2.18776 14613 ft 215 kts 79°
2026-05-07 11:22 53.49900 -2.16298 14992 ft 216 kts 79°
2026-05-07 11:22 53.50076 -2.14643 15242 ft 217 kts 79°
2026-05-07 11:22 53.50338 -2.12138 15630 ft 218 kts 79°
2026-05-07 11:23 53.50603 -2.09619 16007 ft 220 kts 79°
2026-05-07 11:23 53.50881 -2.06973 16017 ft 241 kts 79°
2026-05-07 11:23 53.51266 -2.03294 16838 ft 227 kts 79°
2026-05-07 11:23 53.51446 -2.01562 17284 ft 222 kts 79°
2026-05-07 11:24 53.51716 -1.98972 17633 ft 226 kts 79°
2026-05-07 11:24 53.51987 -1.96355 18048 ft 228 kts 79°
2026-05-07 11:24 53.52262 -1.93725 18432 ft 229 kts 79°
2026-05-07 11:24 53.52535 -1.91111 18778 ft 230 kts 80°
2026-05-07 11:25 53.52553 -1.88426 19103 ft 232 kts 101°
2026-05-07 11:25 53.52113 -1.85818 19456 ft 232 kts 108°
2026-05-07 11:25 53.51656 -1.83215 19828 ft 233 kts 107°
2026-05-07 11:25 53.51209 -1.80594 20183 ft 234 kts 108°
2026-05-07 11:26 53.50748 -1.77963 20546 ft 235 kts 108°
2026-05-07 11:26 53.50279 -1.75321 20919 ft 236 kts 108°
2026-05-07 11:26 53.49812 -1.72682 21292 ft 236 kts 108°
2026-05-07 11:26 53.49349 -1.70046 21691 ft 235 kts 108°
2026-05-07 11:27 53.48885 -1.67413 22083 ft 234 kts 108°
2026-05-07 11:27 53.48420 -1.64791 22467 ft 234 kts 109°
2026-05-07 11:27 53.47957 -1.62187 22863 ft 232 kts 108°
2026-05-07 11:27 53.47494 -1.59598 23247 ft 232 kts 109°
2026-05-07 11:28 53.47035 -1.57013 23626 ft 231 kts 109°
2026-05-07 11:28 53.46572 -1.54428 23936 ft 230 kts 109°
2026-05-07 11:28 53.46111 -1.51857 24257 ft 230 kts 109°
2026-05-07 11:28 53.45651 -1.49294 24548 ft 229 kts 109°
2026-05-07 11:29 53.45193 -1.46738 24853 ft 229 kts 109°
2026-05-07 11:29 53.44738 -1.44210 25153 ft 229 kts 109°
2026-05-07 11:29 53.44277 -1.41656 25464 ft 228 kts 110°
2026-05-07 11:29 53.43817 -1.39113 25768 ft 228 kts 110°
2026-05-07 11:30 53.43358 -1.36571 26062 ft 228 kts 109°
2026-05-07 11:30 53.42899 -1.34034 26358 ft 227 kts 110°
2026-05-07 11:30 53.42441 -1.31505 26659 ft 226 kts 109°
2026-05-07 11:30 53.41984 -1.28978 26950 ft 226 kts 110°
2026-05-07 11:31 53.41527 -1.26452 27232 ft 226 kts 110°
2026-05-07 11:31 53.41071 -1.23928 27520 ft 226 kts 109°
2026-05-07 11:31 53.40615 -1.21415 27809 ft 225 kts 109°
2026-05-07 11:31 53.40160 -1.18907 28094 ft 225 kts 109°
2026-05-07 11:32 53.39246 -1.13895 28659 ft 224 kts 109°
2026-05-07 11:32 53.38945 -1.12247 28850 ft 224 kts 109°
2026-05-07 11:33 53.38616 -1.10444 29044 ft 224 kts 109°
2026-05-07 11:33 53.38161 -1.07955 29318 ft 223 kts 109°
2026-05-07 11:33 53.37700 -1.05442 29605 ft 223 kts 109°
2026-05-07 11:33 53.37245 -1.02965 29880 ft 222 kts 110°
2026-05-07 11:34 53.36790 -1.00489 30147 ft 222 kts 110°
2026-05-07 11:34 53.36342 -0.98047 30368 ft 222 kts 110°
2026-05-07 11:34 53.35887 -0.95584 30613 ft 220 kts 109°
2026-05-07 11:34 53.35435 -0.93140 30832 ft 220 kts 109°
2026-05-07 11:35 53.34983 -0.90693 31053 ft 220 kts 109°
2026-05-07 11:35 53.34519 -0.88195 31072 ft 230 kts 109°
2026-05-07 11:35 53.34034 -0.85596 31085 ft 238 kts 109°
2026-05-07 11:35 53.33534 -0.82900 31083 ft 246 kts 109°
2026-05-07 11:36 53.33017 -0.80121 31081 ft 254 kts 109°
2026-05-07 11:36 53.32487 -0.77267 31081 ft 260 kts 109°
2026-05-07 11:36 53.31942 -0.74344 31084 ft 265 kts 109°
2026-05-07 11:36 53.31386 -0.71367 31083 ft 270 kts 109°
2026-05-07 11:37 53.30820 -0.68343 31083 ft 274 kts 109°
2026-05-07 11:37 53.30247 -0.65288 31078 ft 278 kts 109°
2026-05-07 11:37 53.29666 -0.62190 31084 ft 280 kts 109°
2026-05-07 11:37 53.29079 -0.59067 31085 ft 283 kts 108°